| time (UTC) | temp C | wind direction | speed KPH | gust KPH | rain 1hr cm | rain 24hr cm | rain mn cm | humidity % | barometer mb |
| 20260504160221 | 21 | 289 | 11.3 | 16.1 | 0.00 | 0.00 | 0.00 | 30 | 1012.9 |
| 20260504151150 | 18 | 123 | 9.7 | 16.1 | 0.00 | 0.00 | 0.00 | 35 | 1013.2 |
| 20260504150647 | 19 | 179 | 8.0 | 8.0 | 0.00 | 0.00 | 0.00 | 34 | 1013.4 |
| 20260504150144 | 18 | 302 | 9.7 | 11.3 | 0.00 | 0.00 | 0.00 | 38 | 1013.2 |
| 20260504141113 | 16 | 244 | 6.4 | 4.8 | 0.00 | 0.00 | 0.00 | 48 | 1013.5 |
| 20260504140609 | 16 | 124 | 6.4 | 8.0 | 0.00 | 0.00 | 0.00 | 49 | 1013.6 |
| 20260504140105 | 16 | 269 | 6.4 | 8.0 | 0.00 | 0.00 | 0.00 | 51 | 1013.8 |
| 20260504130533 | 14 | 155 | 9.7 | 11.3 | 0.00 | 0.00 | 0.00 | 57 | 1014.1 |
| 20260504110421 | 7 | 65 | 1.6 | 0.0 | 0.00 | 0.00 | 0.00 | 63 | 1014.5 |
| 20260504100338 | 3 | 36 | 0.0 | 0.0 | 0.00 | 0.00 | 0.00 | 80 | 1014.4 |
| 20260504081731 | 3 | 36 | 0.0 | 0.0 | 0.00 | 0.00 | 0.00 | 84 | 1014.4 |
| 20260504081227 | 3 | 36 | 0.0 | 0.0 | 0.00 | 0.00 | 0.00 | 84 | 1014.5 |
| 20260504080724 | 3 | 36 | 0.0 | 0.0 | 0.00 | 0.00 | 0.00 | 86 | 1014.2 |
| 20260504080221 | 3 | 36 | 0.0 | 0.0 | 0.00 | 0.00 | 0.00 | 85 | 1014.2 |
| 20260504070148 | 3 | 37 | 0.0 | 0.0 | 0.00 | 0.00 | 0.00 | 82 | 1014.4 |
| 20260504060109 | 5 | 36 | 0.0 | 0.0 | 0.00 | 0.00 | 0.00 | 77 | 1014.3 |
| 20260504050537 | 6 | 39 | 0.0 | 0.0 | 0.00 | 0.00 | 0.00 | 67 | 1014.3 |
| 20260504045531 | 7 | 39 | 0.0 | 0.0 | 0.00 | 0.00 | 0.00 | 61 | 1014.4 |
| 20260504045026 | 8 | 39 | 0.0 | 0.0 | 0.00 | 0.00 | 0.00 | 58 | 1014.3 |
| 20260504044524 | 8 | 40 | 0.0 | 0.0 | 0.00 | 0.00 | 0.00 | 56 | 1014.3 |
| 20260504044020 | 8 | 40 | 0.0 | 0.0 | 0.00 | 0.00 | 0.00 | 54 | 1014.4 |
| 20260504043517 | 8 | 40 | 0.0 | 0.0 | 0.00 | 0.00 | 0.00 | 53 | 1014.0 |
| 20260504043015 | 8 | 40 | 0.0 | 0.0 | 0.00 | 0.00 | 0.00 | 52 | 1014.2 |
| 20260504042512 | 8 | 40 | 0.0 | 0.0 | 0.00 | 0.00 | 0.00 | 53 | 1014.2 |
| 20260504042009 | 8 | 40 | 1.6 | 3.2 | 0.00 | 0.00 | 0.00 | 52 | 1014.0 |
| 20260504041504 | 9 | 38 | 0.0 | 0.0 | 0.00 | 0.00 | 0.00 | 53 | 1014.1 |
| 20260504041000 | 8 | 338 | 0.0 | 0.0 | 0.00 | 0.00 | 0.00 | 52 | 1014.0 |
| 20260504040458 | 8 | 336 | 0.0 | 0.0 | 0.00 | 0.00 | 0.00 | 53 | 1014.0 |
| 20260504035954 | 8 | 303 | 3.2 | 3.2 | 0.00 | 0.00 | 0.00 | 53 | 1013.8 |
| 20260504035452 | 7 | 284 | 1.6 | 0.0 | 0.00 | 0.00 | 0.00 | 58 | 1013.7 |
| 20260504034948 | 7 | 284 | 0.0 | 0.0 | 0.00 | 0.00 | 0.00 | 61 | 1013.8 |
| 20260504034446 | 8 | 284 | 0.0 | 0.0 | 0.00 | 0.00 | 0.00 | 60 | 1013.8 |
| 20260504033942 | 8 | 284 | 0.0 | 0.0 | 0.00 | 0.00 | 0.00 | 58 | 1013.8 |
| 20260504033440 | 8 | 284 | 0.0 | 0.0 | 0.00 | 0.00 | 0.00 | 52 | 1013.7 |
| 20260504032938 | 8 | 284 | 0.0 | 0.0 | 0.00 | 0.00 | 0.00 | 54 | 1013.7 |
| 20260504032434 | 8 | 284 | 0.0 | 0.0 | 0.00 | 0.00 | 0.00 | 54 | 1013.8 |
| 20260504031931 | 8 | 284 | 0.0 | 0.0 | 0.00 | 0.00 | 0.00 | 56 | 1013.5 |
| 20260504031428 | 8 | 285 | 0.0 | 0.0 | 0.00 | 0.00 | 0.00 | 55 | 1013.7 |
| 20260504030925 | 8 | 285 | 0.0 | 0.0 | 0.00 | 0.00 | 0.00 | 53 | 1013.8 |
| 20260504030422 | 8 | 285 | 0.0 | 0.0 | 0.00 | 0.00 | 0.00 | 57 | 1013.7 |
| 20260504025918 | 8 | 285 | 1.6 | 3.2 | 0.00 | 0.00 | 0.00 | 53 | 1013.7 |
| 20260504025415 | 8 | 285 | 1.6 | 3.2 | 0.00 | 0.00 | 0.00 | 57 | 1013.6 |
| 20260504024912 | 8 | 285 | 0.0 | 0.0 | 0.00 | 0.00 | 0.00 | 56 | 1013.7 |
| 20260504024409 | 8 | 285 | 0.0 | 0.0 | 0.00 | 0.00 | 0.00 | 53 | 1013.7 |
| 20260504023906 | 8 | 285 | 1.6 | 3.2 | 0.00 | 0.00 | 0.00 | 57 | 1013.6 |
| 20260504023402 | 8 | 285 | 0.0 | 0.0 | 0.00 | 0.00 | 0.00 | 56 | 1013.7 |
| 20260504022857 | 8 | 285 | 0.0 | 0.0 | 0.00 | 0.00 | 0.00 | 57 | 1013.8 |
| 20260504022354 | 8 | 285 | 0.0 | 0.0 | 0.00 | 0.00 | 0.00 | 57 | 1013.8 |
| 20260504021851 | 8 | 285 | 0.0 | 0.0 | 0.00 | 0.00 | 0.00 | 54 | 1013.6 |
| 20260504021348 | 8 | 285 | 0.0 | 0.0 | 0.00 | 0.00 | 0.00 | 56 | 1013.7 |
| 20260504020845 | 8 | 285 | 0.0 | 0.0 | 0.00 | 0.00 | 0.00 | 55 | 1013.7 |
| 20260504020342 | 8 | 285 | 0.0 | 0.0 | 0.00 | 0.00 | 0.00 | 54 | 1013.7 |
| 20260504015838 | 9 | 285 | 0.0 | 0.0 | 0.00 | 0.00 | 0.00 | 51 | 1013.6 |
| 20260504015334 | 9 | 285 | 0.0 | 0.0 | 0.00 | 0.00 | 0.00 | 53 | 1013.7 |
| 20260504014831 | 10 | 285 | 1.6 | 0.0 | 0.00 | 0.00 | 0.00 | 48 | 1013.5 |
| 20260504014326 | 10 | 285 | 1.6 | 3.2 | 0.00 | 0.00 | 0.00 | 48 | 1013.5 |
| 20260504013824 | 10 | 285 | 0.0 | 0.0 | 0.00 | 0.00 | 0.00 | 47 | 1013.4 |
| 20260504013322 | 10 | 285 | 0.0 | 0.0 | 0.00 | 0.00 | 0.00 | 52 | 1013.5 |
| 20260504012819 | 10 | 285 | 0.0 | 0.0 | 0.00 | 0.00 | 0.00 | 48 | 1013.3 |
| 20260504012317 | 10 | 285 | 0.0 | 0.0 | 0.00 | 0.00 | 0.00 | 46 | 1013.5 |
| 20260504011814 | 10 | 285 | 0.0 | 0.0 | 0.00 | 0.00 | 0.00 | 50 | 1013.5 |
| 20260504011310 | 10 | 285 | 0.0 | 0.0 | 0.00 | 0.00 | 0.00 | 47 | 1013.2 |
| 20260504010806 | 11 | 285 | 0.0 | 0.0 | 0.00 | 0.00 | 0.00 | 44 | 1013.3 |
| 20260504010301 | 11 | 285 | 0.0 | 0.0 | 0.00 | 0.00 | 0.00 | 43 | 1013.3 |
| 20260504005758 | 11 | 285 | 0.0 | 0.0 | 0.00 | 0.00 | 0.00 | 42 | 1013.3 |
| 20260504005255 | 11 | 285 | 0.0 | 0.0 | 0.00 | 0.00 | 0.00 | 42 | 1013.2 |
| 20260504004753 | 11 | 285 | 1.6 | 0.0 | 0.00 | 0.00 | 0.00 | 41 | 1013.3 |
| 20260504004250 | 11 | 285 | 0.0 | 3.2 | 0.00 | 0.00 | 0.00 | 40 | 1013.0 |
| 20260504003746 | 11 | 285 | 0.0 | 0.0 | 0.00 | 0.00 | 0.00 | 40 | 1013.0 |
| 20260504003244 | 12 | 285 | 0.0 | 0.0 | 0.00 | 0.00 | 0.00 | 40 | 1012.9 |
| 20260504002740 | 12 | 285 | 0.0 | 0.0 | 0.00 | 0.00 | 0.00 | 39 | 1012.6 |
| 20260504002237 | 12 | 285 | 0.0 | 0.0 | 0.00 | 0.00 | 0.00 | 39 | 1012.8 |
| 20260504001735 | 12 | 285 | 0.0 | 0.0 | 0.00 | 0.00 | 0.00 | 39 | 1012.8 |
| 20260504001232 | 13 | 285 | 0.0 | 0.0 | 0.00 | 0.00 | 0.00 | 38 | 1012.6 |
| 20260504000728 | 13 | 285 | 0.0 | 0.0 | 0.00 | 0.00 | 0.00 | 34 | 1012.7 |
| 20260504000226 | 13 | 284 | 1.6 | 0.0 | 0.00 | 0.00 | 0.00 | 33 | 1012.6 |
| 20260503235724 | 14 | 288 | 0.0 | 0.0 | 0.00 | 0.00 | 0.00 | 33 | 1012.5 |
| 20260503235220 | 14 | 306 | 3.2 | 3.2 | 0.00 | 0.00 | 0.00 | 31 | 1012.5 |
| 20260503234718 | 15 | 271 | 1.6 | 3.2 | 0.00 | 0.00 | 0.00 | 31 | 1012.3 |
| 20260503234216 | 15 | 312 | 6.4 | 4.8 | 0.00 | 0.00 | 0.00 | 30 | 1012.5 |
| 20260503233713 | 15 | 242 | 8.0 | 8.0 | 0.00 | 0.00 | 0.00 | 30 | 1012.4 |
| 20260503233208 | 15 | 294 | 4.8 | 4.8 | 0.00 | 0.00 | 0.00 | 29 | 1012.3 |
| 20260503232705 | 15 | 299 | 3.2 | 3.2 | 0.00 | 0.00 | 0.00 | 29 | 1012.4 |
| 20260503232203 | 15 | 324 | 4.8 | 4.8 | 0.00 | 0.00 | 0.00 | 30 | 1012.2 |
| 20260503231701 | 15 | 321 | 3.2 | 4.8 | 0.00 | 0.00 | 0.00 | 29 | 1012.4 |
| 20260503231157 | 15 | 333 | 6.4 | 11.3 | 0.00 | 0.00 | 0.00 | 29 | 1012.2 |
| 20260503230654 | 15 | 300 | 9.7 | 14.5 | 0.00 | 0.00 | 0.00 | 28 | 1012.4 |
| 20260503230151 | 16 | 298 | 9.7 | 14.5 | 0.00 | 0.00 | 0.00 | 28 | 1012.2 |
| 20260503225648 | 16 | 256 | 3.2 | 8.0 | 0.00 | 0.00 | 0.00 | 30 | 1012.2 |
| 20260503225148 | 16 | 255 | 6.4 | 11.3 | 0.00 | 0.00 | 0.00 | 29 | 1012.2 |
| 20260503224645 | 15 | 267 | 4.8 | 4.8 | 0.00 | 0.00 | 0.00 | 28 | 1012.2 |
| 20260503224143 | 16 | 295 | 1.6 | 3.2 | 0.00 | 0.00 | 0.00 | 29 | 1012.3 |
| 20260503223641 | 15 | 303 | 6.4 | 8.0 | 0.00 | 0.00 | 0.00 | 28 | 1012.2 |
| 20260503223137 | 15 | 303 | 3.2 | 3.2 | 0.00 | 0.00 | 0.00 | 28 | 1012.1 |
| 20260503222635 | 16 | 300 | 4.8 | 4.8 | 0.00 | 0.00 | 0.00 | 28 | 1012.3 |
| 20260503222132 | 16 | 239 | 11.3 | 14.5 | 0.00 | 0.00 | 0.00 | 27 | 1012.2 |
| 20260503221631 | 16 | 308 | 16.1 | 24.1 | 0.00 | 0.00 | 0.00 | 27 | 1012.1 |
| 20260503221128 | 16 | 330 | 12.9 | 24.1 | 0.00 | 0.00 | 0.00 | 28 | 1012.1 |
| 20260503220624 | 16 | 261 | 12.9 | 27.4 | 0.00 | 0.00 | 0.00 | 27 | 1012.0 |
| 20260503220121 | 16 | 289 | 9.7 | 14.5 | 0.00 | 0.00 | 0.00 | 26 | 1012.2 |
| 20260503215618 | 16 | 284 | 8.0 | 11.3 | 0.00 | 0.00 | 0.00 | 26 | 1012.0 |
| 20260503215114 | 16 | 301 | 9.7 | 16.1 | 0.00 | 0.00 | 0.00 | 27 | 1012.2 |
| 20260503214613 | 16 | 295 | 3.2 | 4.8 | 0.00 | 0.00 | 0.00 | 26 | 1012.1 |
| 20260503214109 | 16 | 316 | 9.7 | 14.5 | 0.00 | 0.00 | 0.00 | 26 | 1012.1 |
| 20260503213608 | 16 | 313 | 6.4 | 11.3 | 0.00 | 0.00 | 0.00 | 24 | 1012.2 |
| 20260503213104 | 16 | 292 | 3.2 | 4.8 | 0.00 | 0.00 | 0.00 | 26 | 1012.3 |
| 20260503212601 | 16 | 348 | 4.8 | 4.8 | 0.00 | 0.00 | 0.00 | 25 | 1012.0 |
| 20260503212059 | 16 | 325 | 8.0 | 8.0 | 0.00 | 0.00 | 0.00 | 26 | 1011.8 |
| 20260503211556 | 16 | 342 | 8.0 | 14.5 | 0.00 | 0.00 | 0.00 | 26 | 1011.9 |
| 20260503211051 | 16 | 303 | 6.4 | 8.0 | 0.00 | 0.00 | 0.00 | 25 | 1011.9 |
| 20260503210548 | 16 | 246 | 3.2 | 4.8 | 0.00 | 0.00 | 0.00 | 28 | 1012.0 |
| 20260503210044 | 16 | 301 | 8.0 | 8.0 | 0.00 | 0.00 | 0.00 | 25 | 1012.2 |
| 20260503205541 | 16 | 332 | 9.7 | 11.3 | 0.00 | 0.00 | 0.00 | 24 | 1012.0 |
| 20260503205037 | 16 | 303 | 4.8 | 4.8 | 0.00 | 0.00 | 0.00 | 27 | 1012.1 |
| 20260503204534 | 16 | 235 | 17.7 | 30.6 | 0.00 | 0.00 | 0.00 | 25 | 1012.2 |
| 20260503204031 | 16 | 280 | 12.9 | 16.1 | 0.00 | 0.00 | 0.00 | 25 | 1012.1 |
| 20260503203529 | 16 | 312 | 11.3 | 16.1 | 0.00 | 0.00 | 0.00 | 25 | 1012.4 |
| 20260503203025 | 16 | 238 | 25.7 | 30.6 | 0.00 | 0.00 | 0.00 | 24 | 1012.2 |
| 20260503202523 | 16 | 1 | 8.0 | 8.0 | 0.00 | 0.00 | 0.00 | 28 | 1012.5 |
| 20260503202021 | 16 | 15 | 8.0 | 11.3 | 0.00 | 0.00 | 0.00 | 25 | 1012.4 |
| 20260503201519 | 16 | 303 | 8.0 | 11.3 | 0.00 | 0.00 | 0.00 | 26 | 1012.3 |
| 20260503201016 | 16 | 308 | 11.3 | 19.3 | 0.00 | 0.00 | 0.00 | 25 | 1012.5 |
| 20260503200512 | 16 | 295 | 16.1 | 19.3 | 0.00 | 0.00 | 0.00 | 25 | 1012.6 |
| 20260503200009 | 16 | 291 | 8.0 | 11.3 | 0.00 | 0.00 | 0.00 | 26 | 1012.5 |
| 20260503195506 | 16 | 305 | 11.3 | 14.5 | 0.00 | 0.00 | 0.00 | 26 | 1012.5 |
| 20260503195002 | 16 | 320 | 8.0 | 11.3 | 0.00 | 0.00 | 0.00 | 26 | 1012.3 |
| 20260503194500 | 15 | 301 | 12.9 | 16.1 | 0.00 | 0.00 | 0.00 | 26 | 1012.4 |
| 20260503193955 | 15 | 309 | 11.3 | 11.3 | 0.00 | 0.00 | 0.00 | 29 | 1012.7 |
| 20260503193451 | 15 | 260 | 9.7 | 11.3 | 0.00 | 0.00 | 0.00 | 28 | 1012.6 |
| 20260503192946 | 15 | 355 | 14.5 | 16.1 | 0.00 | 0.00 | 0.00 | 29 | 1012.5 |
| 20260503192443 | 15 | 302 | 6.4 | 16.1 | 0.00 | 0.00 | 0.00 | 28 | 1012.8 |
| 20260503191938 | 15 | 329 | 17.7 | 22.5 | 0.00 | 0.00 | 0.00 | 28 | 1013.0 |
| 20260503191436 | 15 | 293 | 3.2 | 4.8 | 0.00 | 0.00 | 0.00 | 30 | 1012.9 |
| 20260503190932 | 15 | 276 | 16.1 | 33.8 | 0.00 | 0.00 | 0.00 | 29 | 1013.1 |
| 20260503190430 | 15 | 262 | 9.7 | 11.3 | 0.00 | 0.00 | 0.00 | 28 | 1012.9 |
| 20260503185927 | 15 | 298 | 14.5 | 22.5 | 0.00 | 0.00 | 0.00 | 28 | 1013.0 |
| 20260503185423 | 15 | 338 | 12.9 | 16.1 | 0.00 | 0.00 | 0.00 | 29 | 1013.1 |
| 20260503184922 | 15 | 325 | 6.4 | 8.0 | 0.00 | 0.00 | 0.00 | 28 | 1013.2 |
| 20260503184419 | 15 | 297 | 16.1 | 19.3 | 0.00 | 0.00 | 0.00 | 28 | 1013.2 |
| 20260503183916 | 15 | 331 | 20.9 | 24.1 | 0.00 | 0.00 | 0.00 | 27 | 1013.4 |
| 20260503183412 | 15 | 330 | 19.3 | 22.5 | 0.00 | 0.00 | 0.00 | 27 | 1013.4 |
| 20260503182909 | 15 | 317 | 6.4 | 8.0 | 0.00 | 0.00 | 0.00 | 29 | 1013.4 |
| 20260503182409 | 14 | 311 | 3.2 | 4.8 | 0.00 | 0.00 | 0.00 | 27 | 1013.4 |
| 20260503181905 | 14 | 310 | 12.9 | 16.1 | 0.00 | 0.00 | 0.00 | 28 | 1013.4 |
| 20260503181402 | 14 | 334 | 11.3 | 14.5 | 0.00 | 0.00 | 0.00 | 30 | 1013.4 |
| 20260503180858 | 14 | 335 | 8.0 | 11.3 | 0.00 | 0.00 | 0.00 | 32 | 1013.3 |
| 20260503180357 | 14 | 328 | 11.3 | 14.5 | 0.00 | 0.00 | 0.00 | 28 | 1013.4 |
| 20260503175853 | 13 | 313 | 16.1 | 19.3 | 0.00 | 0.00 | 0.00 | 29 | 1013.6 |
| 20260503175351 | 13 | 335 | 6.4 | 8.0 | 0.00 | 0.00 | 0.00 | 30 | 1013.3 |
| 20260503174846 | 13 | 341 | 14.5 | 19.3 | 0.00 | 0.00 | 0.00 | 30 | 1013.6 |
| 20260503174345 | 13 | 4 | 14.5 | 22.5 | 0.00 | 0.00 | 0.00 | 29 | 1013.4 |
| 20260503173845 | 13 | 314 | 16.1 | 19.3 | 0.00 | 0.00 | 0.00 | 28 | 1013.6 |
| 20260503173342 | 13 | 297 | 12.9 | 16.1 | 0.00 | 0.00 | 0.00 | 30 | 1013.3 |
| 20260503172838 | 13 | 338 | 11.3 | 14.5 | 0.00 | 0.00 | 0.00 | 29 | 1013.5 |
| 20260503172336 | 13 | 323 | 4.8 | 8.0 | 0.00 | 0.00 | 0.00 | 31 | 1013.6 |
| 20260503171832 | 13 | 311 | 12.9 | 14.5 | 0.00 | 0.00 | 0.00 | 29 | 1013.6 |
| 20260503171329 | 13 | 294 | 11.3 | 16.1 | 0.00 | 0.00 | 0.00 | 29 | 1013.8 |
| 20260503170827 | 13 | 244 | 9.7 | 14.5 | 0.00 | 0.00 | 0.00 | 30 | 1013.7 |
| 20260503170323 | 13 | 314 | 6.4 | 8.0 | 0.00 | 0.00 | 0.00 | 32 | 1013.9 |